Date,TemperatureHighF,TemperatureAvgF,TemperatureLowF,DewpointHighF,DewpointAvgF,DewpointLowF,HumidityHigh,HumidityAvg,HumidityLow,PressureMaxIn,PressureMinIn,WindSpeedMaxMPH,WindSpeedAvgMPH,GustSpeedMaxMPH,PrecipitationSumIn
2013-1-1,30.9,14.9,4.9,18.0,7.9,0.0,80,74,53,30.51,30.34,4,1,6,0.00
2013-1-2,34.1,19.5,7.2,15.0,8.7,1.0,79,65,40,30.58,30.41,7,1,11,0.00
2013-1-3,39.1,17.2,0.6,13.0,4.6,-4.0,80,62,24,30.60,30.46,3,0,8,0.00
2013-1-4,45.7,22.8,7.2,19.0,9.7,1.0,78,61,25,30.52,30.26,2,0,3,0.02
2013-1-5,40.9,22.3,9.4,19.0,11.0,3.0,80,65,37,30.53,30.30,9,1,12,0.00
2013-1-6,41.9,22.0,4.3,18.0,9.7,-1.0,81,63,24,30.52,30.17,3,0,4,0.00
2013-1-7,52.9,33.6,22.0,23.0,16.3,11.0,76,54,19,30.20,29.91,6,1,8,0.00
2013-1-8,50.5,39.6,23.5,23.0,19.4,15.0,76,47,29,30.28,29.88,12,3,23,0.00
2013-1-9,54.9,33.3,19.6,26.0,19.6,13.0,79,62,25,30.40,30.12,5,1,6,0.00
2013-1-10,40.7,26.8,16.1,24.0,18.4,10.0,80,71,46,30.12,29.59,3,0,8,0.00
2013-1-11,40.3,23.9,3.5,26.0,13.5,-1.0,81,67,31,30.00,29.41,12,3,23,0.00
2013-1-12,16.6,9.3,2.7,9.0,3.9,-2.0,81,78,67,30.41,30.02,10,2,10,0.00
2013-1-13,15.4,5.7,-4.8,7.0,-0.1,-9.0,82,77,66,30.55,30.41,5,1,6,0.00
2013-1-14,16.4,6.3,-3.8,7.0,-0.0,-9.0,87,75,62,30.60,30.46,3,0,5,0.00
2013-1-15,30.1,15.1,-6.1,18.0,5.6,-11.0,83,67,45,30.58,30.45,4,0,5,0.00
2013-1-16,55.9,34.6,19.6,32.0,20.8,13.0,78,59,33,30.48,30.32,4,1,12,0.01
2013-1-17,52.7,31.3,17.6,26.0,18.9,13.0,83,64,32,30.59,30.36,4,0,6,0.00
2013-1-18,58.8,38.4,16.8,23.0,10.1,3.0,80,41,11,30.36,30.12,9,2,13,0.00
2013-1-19,63.1,43.6,28.3,16.0,8.7,2.0,49,27,10,30.24,30.10,5,1,14,0.00
2013-1-20,49.7,31.4,18.6,16.0,13.1,10.0,75,50,24,30.39,30.16,7,1,8,0.00
2013-1-21,58.7,34.3,12.4,21.0,10.5,0.0,86,47,14,30.39,30.16,3,1,10,0.00
2013-1-22,62.9,42.3,21.5,17.0,8.4,-7.0,64,30,9,30.16,30.03,9,1,14,0.00
2013-1-23,65.4,46.9,25.6,14.0,3.0,-11.0,53,23,5,30.22,30.08,12,2,20,0.00
2013-1-24,63.2,41.8,23.2,26.0,15.5,6.0,65,40,11,30.13,29.93,8,2,14,0.00
2013-1-25,56.2,38.4,26.6,29.0,24.7,20.0,78,60,35,30.20,30.06,3,0,6,0.00
2013-1-26,53.6,39.4,27.0,36.0,27.9,22.0,90,66,39,30.12,29.78,2,0,9,0.00
2013-1-27,60.4,41.2,30.0,38.0,30.4,21.0,94,69,32,29.79,29.68,7,1,16,0.00
2013-1-28,47.6,32.7,22.1,31.0,24.6,17.0,92,74,49,29.84,29.58,6,1,9,0.00
2013-1-29,33.9,24.4,14.0,24.0,16.6,8.0,93,74,49,30.15,29.82,10,1,18,0.04
2013-1-30,41.2,24.4,6.4,24.0,13.1,3.0,86,64,41,30.15,30.04,5,1,8,0.02
2013-1-31,49.0,33.8,22.4,27.0,21.0,14.0,87,62,36,30.25,30.06,5,1,13,0.00